#timestamp,LO_Frequency,Hit 
1502787615.3,286046963.8,N
1502787635.2,286046963.5,N
1502787655.9,286046964.0,N
1502787675.7,286046962.5,N
1502787695.6,286046958.2,N
1502787715.4,286046955.4,Y
1502787735.2,286046988.3,N
1502787755.1,286046984.4,N
1502787756.0,286046984.4,N
1502787775.8,286046982.5,N
1502787795.6,286046984.5,N
1502787815.4,286046983.4,N
1502787835.3,286046981.1,N
1502787855.1,286046983.0,N
1502787875.8,286046981.2,N
1502787895.7,286046981.7,N
1502787915.5,286046979.0,N
1502787935.3,286046977.7,N
1502787955.2,286046975.9,N
1502787975.9,286046973.8,N
1502787995.7,286046970.9,N
1502788015.6,286046971.5,N
1502788035.4,286046969.7,N
1502788055.2,286046969.0,N
1502788075.0,286046966.7,N
1502788075.9,286046966.7,N
1502788095.8,286046966.5,N
1502788115.6,286046968.8,N
1502788135.4,286046970.2,N
1502788155.3,286046971.1,N
1502788175.1,286046969.7,N
1502788195.8,286046970.6,N
1502788215.7,286046969.7,N
1502788235.5,286046971.4,N
1502788255.3,286046970.2,N
1502788275.2,286046968.7,N
1502788295.9,286046965.3,N
1502788315.7,286046963.1,N
1502788335.5,286046963.7,N
1502788355.4,286046964.4,N
1502788375.2,286046959.3,Y
1502788395.0,286046994.1,N
1502788396.0,286046994.1,N
1502788415.8,286046991.8,N
1502788435.6,286046990.6,N
1502788455.4,286046986.9,N
1502788475.3,286046985.5,N
1502788495.1,286046983.8,N
1502788515.8,286046982.1,N
1502788535.7,286046980.7,N
1502788555.5,286046982.0,N
1502788575.3,286046981.1,N
1502788595.2,286046980.2,N
1502788615.9,286046980.3,N
1502788635.7,286046979.7,N
1502788655.6,286046980.9,N
1502788675.4,286046979.8,N
1502788695.2,286046977.6,N
1502788715.0,286046977.5,N
1502788715.9,286046977.5,N
1502788735.8,286046978.3,N
1502788755.6,286046975.9,N
1502788775.4,286046975.7,N
1502788795.3,286046985.4,N
1502788815.1,286046988.9,N
1502788816.0,286046988.9,N
1502788835.8,286046992.6,N
1502788855.7,286046999.6,N
1502788875.5,286047007.2,N
1502788895.3,286047000.4,N
1502788915.1,286046999.2,N
1502788935.9,286046997.1,N
1502788955.7,286046994.6,N
1502788975.5,286046993.9,N
1502788995.4,286046992.6,N
1502789015.2,286046997.4,N
1502789035.0,286046992.0,N
1502789035.9,286046992.0,N
1502789055.8,286046991.2,N
1502789075.6,286046994.6,N
1502789095.4,286046991.4,N
1502789115.3,286046987.6,N
1502789135.1,286046986.6,N
1502789136.0,286046986.6,N
1502789155.8,286046983.8,N
1502789175.6,286046983.8,N
1502789195.5,286046990.9,N
1502789215.3,286046994.6,N
1502789235.1,286046995.4,N
1502789255.9,286046992.6,N
1502789275.7,286046993.2,N
1502789295.5,286046999.2,N
1502789315.4,286047002.3,N
1502789335.2,286047001.1,N
1502789355.0,286047002.1,N
1502789355.9,286047002.1,N
1502789375.8,286047000.5,N
1502789395.6,286047002.5,N
1502789415.4,286047006.0,N
1502789435.3,286047011.1,N
1502789455.1,286047009.4,N
1502789456.0,286047009.4,N
1502789475.8,286047006.9,N
1502789495.7,286047003.3,N
1502789515.5,286047006.8,N
1502789535.3,286047002.0,N
1502789555.1,286046996.5,N
1502789575.9,286047002.8,N
1502789595.7,286046998.2,N
1502789615.6,286046993.4,N
1502789635.4,286046990.8,N
1502789655.2,286046988.2,N
1502789675.1,286046985.5,N
1502789676.0,286046985.5,N
1502789695.8,286046985.4,N
1502789715.6,286046983.8,N
1502789735.5,286046983.4,N
1502789755.3,286046979.4,N
1502789775.1,286046978.6,N
1502789795.9,286046974.3,N
1502789815.7,286046973.6,N
1502789835.5,286046968.2,N
1502789855.3,286046964.5,N
1502789875.2,286046963.4,N
1502789895.0,286046961.9,N
1502789895.9,286046961.9,N
1502789915.7,286046960.3,N
1502789935.6,286046963.9,N
1502789955.4,286046961.7,N
1502789975.2,286046967.4,N
1502789995.1,286046969.4,N
1502789996.0,286046969.4,N
1502790015.8,286046971.8,N
1502790035.6,286046973.5,N
1502790055.5,286046971.2,N
1502790075.3,286046972.3,N
1502790095.1,286046974.8,N
1502790115.8,286046967.0,N
1502790135.7,286046961.0,N
1502790155.5,286046960.1,N
1502790175.3,286046958.9,N
1502790195.2,286046956.8,N
1502790215.9,286046958.8,N
1502790235.7,286046957.1,N
1502790255.6,286046953.8,N
1502790275.4,286046952.9,N
1502790295.2,286046952.6,N
1502790315.0,286046954.3,N
1502790316.0,286046954.3,N
1502790335.8,286046955.2,N
1502790355.6,286046954.4,N
1502790375.5,286046948.9,Y
1502790395.3,286046979.1,N
1502790415.1,286046984.5,N
1502790435.8,286046992.2,N
1502790455.7,286047001.9,N
1502790475.5,286047006.0,N
1502790495.3,286046996.7,N
1502790515.2,286046993.8,N
1502790535.9,286046996.4,N
1502790555.7,286046994.9,N
1502790575.6,286046998.2,N
1502790595.4,286046995.5,N
1502790615.2,286046992.6,N
1502790635.1,286046989.3,N
1502790636.0,286046989.3,N
1502790655.8,286046987.7,N
1502790675.6,286046984.7,N
1502790695.4,286046988.2,N
1502790715.3,286046987.3,N
1502790735.1,286046990.3,N
1502790755.8,286046986.9,N
1502790775.7,286046986.6,N
1502790795.5,286046977.8,N
1502790815.3,286046975.4,N
1502790835.2,286046977.0,N
1502790855.9,286046975.3,N
1502790875.7,286046972.3,N
1502790895.6,286046968.4,N
1502790915.4,286046969.8,N
1502790935.2,286046971.4,N
1502790955.0,286046974.9,N
1502790955.9,286046974.9,N
1502790975.8,286046972.6,N
1502790995.6,286046974.2,N
1502791015.4,286046972.5,N
1502791035.3,286046972.3,N
1502791055.1,286046970.2,N
1502791075.8,286046966.9,N
1502791095.7,286046966.9,N
1502791115.5,286046963.5,N
1502791135.3,286046961.6,N
1502791155.2,286046960.6,N
1502791175.9,286046960.3,N
1502791195.7,286046958.5,N
